Regional Weather Roundup
Issued by NWS

Home | Current Version | Previous Version | Text Only | Print | Product List | Glossary Off
Versions: 1 2 3 4 5 6 7 8 9 10 11 12 13 14 15 16 17 18 19 20 21 22 23 24 25 26 27

000
ASUS45 KCYS 181610
RWRWY

WYOMING REGIONAL WEATHER ROUNDUP
NATIONAL WEATHER SERVICE CHEYENNE WY
900 AM MST SAT NOV 18 2017

NOTE:  "FAIR" INDICATES FEW OR NO CLOUDS BELOW 12,000 FEET
WITH NO SIGNIFICANT WEATHER AND/OR OBSTRUCTIONS TO VISIBILITY.

WYZ001-181700-
YELLOWSTONE NATIONAL PARK

CITY           SKY/WX    TMP DP  RH WIND       PRES   REMARKS
LK YELLOWSTONE NOT AVBL
W YELLOWSTONE  NOT AVBL

$$
WYZ002>013-054>058-071-098>099-181700-
NORTHERN WYOMING

CITY           SKY/WX    TMP DP  RH WIND       PRES   REMARKS
JACKSON        FAIR      12   5  73 NE5       30.35R WCI   4
CODY           FAIR      33   8  35 W14G28    30.20R WCI  23
GREYBULL       PTSUNNY   28  21  75 SE5       30.23R WCI  23
WORLAND        FAIR      24  19  81 SW6       30.23R WCI  17
SHERIDAN       FAIR      33  17  51 CALM      30.17R
BUFFALO        FAIR      29   7  39 W8        30.17R WCI  21
GILLETTE       FAIR      33  15  47 W14       30.17R WCI  23
HULETT         FAIR      32  19  59 W9        30.15S WCI  24
NEWCASTLE      FAIR      30  18  59 N9        30.17S WCI  22

$$
WYZ014>020-022>026-101>103-181700-
CENTRAL WYOMING

CITY           SKY/WX    TMP DP  RH WIND       PRES   REMARKS
BIG PINEY      FAIR      11   6  81 CALM      30.33R
PINEDALE       FAIR      18   9  68 W8        30.33R WCI   7
DUBOIS         FAIR      21   7  53 N20G25    30.20F WCI   6
LANDER         FAIR      24  13  62 SE6       30.21R WCI  17
RIVERTON       FAIR      28   7  41 SW15      30.21R WCI  16
CASPER         FAIR      23  15  71 SW17      30.22R WCI   9
DOUGLAS        FAIR      24  19  81 NW7       30.23R WCI  16

$$
WYZ021-027>030-104>119-181700-
SOUTHERN WYOMING

CITY           SKY/WX    TMP DP  RH WIND       PRES   REMARKS
EVANSTON       FAIR      14  11  87 SW9       30.38R WCI   2
FORT BRIDGER   FAIR      18  12  79 SW14      30.39R WCI   4
ROCK SPRINGS   FAIR      20  13  74 SW15      30.34S WCI   6
DIXON          FAIR       9   6  88 CALM      30.44R
RAWLINS        FAIR      20  14  77 SW17G25   30.30R WCI   5
SARATOGA         N/A     21  12  68 SW15      30.34R WCI   8
LARAMIE        FAIR      21  10  62 W20       30.20R WCI   6
CHEYENNE       FAIR      25  12  58 W5        30.20R WCI  19
TORRINGTON     FAIR      33  20  58 W17       30.23R WCI  22
PINE BLUFFS    FAIR      30  16  55 MISG      30.24R

$$




USA.gov is the U.S. government's official web portal to all federal, state and local government web resources and services.